SWR357 EGLL-LSGG

Flight info

Callsign SWR357
Flight time N/A
Altitude 37000
Route MODMI M185 MID UL612 VEULE DCT PEKIM DCT PILUL DCT PIMUP/N0406F270 DCT PIXIS DCT PIBAT/N0384F230 DCT LUSAR
Aircraft A321/M-SDE3FGHIRWY/LB1

Departure

Time 2026-05-06 23:48
Airport London Heathrow Airport (EGLL)

Arrival

Time N/A
Airport Geneva International Airport (LSGG)
Time Latitude Longitude Altitude Speed Heading
2026-05-06 23:22 51.46858 -0.44673 88 ft 0 kts 266°
2026-05-06 23:35 51.46859 -0.44641 89 ft 4 kts 268°
2026-05-06 23:35 51.46860 -0.44603 89 ft 4 kts 265°
2026-05-06 23:35 51.46867 -0.44566 88 ft 4 kts 214°
2026-05-06 23:36 51.46890 -0.44556 86 ft 3 kts 179°
2026-05-06 23:36 51.46898 -0.44556 86 ft 0 kts 179°
2026-05-06 23:38 51.46892 -0.44556 87 ft 1 kts 180°
2026-05-06 23:38 51.46881 -0.44557 88 ft 3 kts 180°
2026-05-06 23:39 51.46852 -0.44557 87 ft 6 kts 180°
2026-05-06 23:39 51.46803 -0.44557 85 ft 8 kts 180°
2026-05-06 23:39 51.46758 -0.44591 87 ft 7 kts 243°
2026-05-06 23:39 51.46755 -0.44666 86 ft 6 kts 270°
2026-05-06 23:40 51.46754 -0.44734 85 ft 6 kts 268°
2026-05-06 23:40 51.46753 -0.44794 85 ft 5 kts 268°
2026-05-06 23:40 51.46753 -0.44848 85 ft 4 kts 271°
2026-05-06 23:40 51.46754 -0.44895 85 ft 4 kts 271°
2026-05-06 23:41 51.46755 -0.44935 86 ft 3 kts 272°
2026-05-06 23:41 51.46755 -0.44968 87 ft 3 kts 272°
2026-05-06 23:41 51.46755 -0.45023 88 ft 7 kts 268°
2026-05-06 23:41 51.46754 -0.45101 85 ft 7 kts 269°
2026-05-06 23:42 51.46753 -0.45181 85 ft 8 kts 270°
2026-05-06 23:42 51.46753 -0.45273 85 ft 9 kts 270°
2026-05-06 23:42 51.46751 -0.45376 85 ft 10 kts 269°
2026-05-06 23:42 51.46750 -0.45490 85 ft 11 kts 270°
2026-05-06 23:43 51.46751 -0.45617 85 ft 12 kts 270°
2026-05-06 23:43 51.46749 -0.45756 85 ft 13 kts 264°
2026-05-06 23:43 51.46746 -0.45906 85 ft 14 kts 272°
2026-05-06 23:43 51.46749 -0.46069 85 ft 15 kts 270°
2026-05-06 23:44 51.46750 -0.46243 85 ft 16 kts 270°
2026-05-06 23:44 51.46748 -0.46426 85 ft 16 kts 270°
2026-05-06 23:44 51.46748 -0.46617 85 ft 17 kts 270°
2026-05-06 23:44 51.46748 -0.46819 85 ft 19 kts 269°
2026-05-06 23:45 51.46747 -0.47035 86 ft 20 kts 270°
2026-05-06 23:45 51.46748 -0.47266 85 ft 21 kts 270°
2026-05-06 23:45 51.46747 -0.47511 89 ft 23 kts 270°
2026-05-06 23:45 51.46745 -0.47746 86 ft 19 kts 266°
2026-05-06 23:46 51.46745 -0.47966 85 ft 20 kts 270°
2026-05-06 23:46 51.46744 -0.48139 85 ft 10 kts 268°
2026-05-06 23:46 51.46703 -0.48213 89 ft 10 kts 188°
2026-05-06 23:46 51.46643 -0.48217 87 ft 8 kts 180°
2026-05-06 23:47 51.46584 -0.48213 86 ft 9 kts 176°
2026-05-06 23:47 51.46510 -0.48208 88 ft 8 kts 177°
2026-05-06 23:47 51.46479 -0.48146 87 ft 7 kts 90°
2026-05-06 23:47 51.46480 -0.47831 83 ft 64 kts 89°
2026-05-06 23:48 51.46485 -0.46731 92 ft 129 kts 89°
2026-05-06 23:48 51.46494 -0.45012 195 ft 169 kts 88°
2026-05-06 23:48 51.46503 -0.43177 953 ft 164 kts 88°
2026-05-06 23:48 51.46398 -0.41312 1483 ft 180 kts 111°
2026-05-06 23:49 51.45615 -0.39614 1809 ft 202 kts 130°
2026-05-06 23:49 51.44583 -0.37904 2055 ft 227 kts 139°
2026-05-06 23:49 51.43156 -0.36472 2403 ft 254 kts 156°
2026-05-06 23:49 51.41472 -0.35535 3305 ft 260 kts 168°
2026-05-06 23:50 51.39674 -0.35665 4199 ft 263 kts 198°
2026-05-06 23:50 51.36395 -0.38345 5792 ft 268 kts 207°
2026-05-06 23:50 51.34736 -0.39683 5974 ft 267 kts 206°
2026-05-06 23:51 51.33062 -0.40993 5999 ft 267 kts 206°
2026-05-06 23:51 51.31397 -0.42283 6006 ft 266 kts 206°
2026-05-06 23:51 51.29724 -0.43575 6008 ft 267 kts 206°
2026-05-06 23:51 51.28055 -0.44866 6008 ft 267 kts 206°
2026-05-06 23:52 51.26388 -0.46170 6043 ft 269 kts 206°
2026-05-06 23:52 51.24705 -0.47510 6833 ft 270 kts 207°
2026-05-06 23:52 51.23012 -0.48865 7655 ft 274 kts 207°
2026-05-06 23:52 51.21291 -0.50224 8440 ft 279 kts 207°
2026-05-06 23:53 51.19526 -0.51597 9219 ft 284 kts 207°
2026-05-06 23:53 51.17735 -0.52984 9980 ft 289 kts 207°
2026-05-06 23:53 51.15882 -0.54416 10415 ft 306 kts 207°
2026-05-06 23:53 51.13897 -0.55945 10581 ft 329 kts 207°
2026-05-06 23:54 51.11782 -0.57573 10942 ft 342 kts 207°
2026-05-06 23:54 51.09607 -0.59175 11570 ft 348 kts 201°
2026-05-06 23:54 51.07238 -0.60086 12248 ft 353 kts 187°
2026-05-06 23:54 51.05040 -0.60078 12864 ft 357 kts 173°
2026-05-06 23:55 51.02536 -0.59054 13579 ft 361 kts 158°
2026-05-06 23:55 51.00339 -0.57104 14203 ft 365 kts 146°
2026-05-06 23:55 50.98230 -0.54831 14827 ft 368 kts 146°
2026-05-06 23:55 50.96094 -0.52545 15447 ft 371 kts 146°
2026-05-06 23:56 50.93946 -0.50255 16039 ft 374 kts 146°
2026-05-06 23:56 50.91744 -0.47914 16637 ft 377 kts 147°
2026-05-06 23:56 50.89581 -0.45621 17213 ft 381 kts 147°
2026-05-06 23:56 50.87367 -0.43279 17773 ft 384 kts 147°
2026-05-06 23:57 50.85143 -0.40927 18362 ft 387 kts 147°
2026-05-06 23:57 50.82898 -0.38555 18857 ft 389 kts 147°
2026-05-06 23:57 50.80639 -0.36172 19341 ft 392 kts 147°
2026-05-06 23:57 50.78364 -0.33770 19792 ft 394 kts 147°
2026-05-06 23:58 50.76078 -0.31353 20254 ft 397 kts 147°
2026-05-06 23:58 50.73774 -0.28925 20695 ft 399 kts 147°
2026-05-06 23:58 50.71455 -0.26490 21130 ft 402 kts 147°
2026-05-06 23:58 50.69124 -0.24045 21563 ft 404 kts 147°
2026-05-06 23:59 50.66775 -0.21578 22001 ft 407 kts 147°
2026-05-06 23:59 50.64417 -0.19098 22408 ft 409 kts 147°
2026-05-06 23:59 50.62045 -0.16605 22852 ft 412 kts 147°
2026-05-06 23:59 50.59648 -0.14093 23288 ft 414 kts 147°
2026-05-07 00:00 50.57240 -0.11573 23712 ft 417 kts 148°
2026-05-07 00:00 50.54821 -0.09047 24066 ft 419 kts 148°
2026-05-07 00:00 50.52378 -0.06507 24443 ft 422 kts 148°
2026-05-07 00:00 50.49922 -0.03957 24810 ft 424 kts 148°
2026-05-07 00:01 50.47455 -0.01398 25175 ft 426 kts 148°
2026-05-07 00:01 50.44976 0.01171 25556 ft 428 kts 148°
2026-05-07 00:01 50.42483 0.03753 25915 ft 431 kts 148°
2026-05-07 00:01 50.39975 0.06347 26263 ft 433 kts 148°
2026-05-07 00:02 50.37458 0.08953 26616 ft 435 kts 148°
2026-05-07 00:02 50.34928 0.11575 26966 ft 437 kts 148°
2026-05-07 00:02 50.32380 0.14206 27300 ft 440 kts 148°
2026-05-07 00:02 50.29820 0.16843 27650 ft 442 kts 148°
2026-05-07 00:03 50.27241 0.19495 27992 ft 444 kts 148°
2026-05-07 00:03 50.24652 0.22152 28333 ft 446 kts 148°
2026-05-07 00:03 50.22046 0.24823 28677 ft 449 kts 148°
2026-05-07 00:03 50.19434 0.27498 28990 ft 451 kts 148°
2026-05-07 00:04 50.16808 0.30195 29280 ft 453 kts 147°
2026-05-07 00:04 50.14166 0.32919 29581 ft 455 kts 147°
2026-05-07 00:04 50.11523 0.35645 29866 ft 457 kts 147°
2026-05-07 00:04 50.08864 0.38385 30112 ft 459 kts 147°
2026-05-07 00:05 50.06186 0.41132 30353 ft 461 kts 148°
2026-05-07 00:05 50.03501 0.43877 30579 ft 462 kts 148°
2026-05-07 00:05 50.00813 0.46616 30890 ft 461 kts 147°
2026-05-07 00:05 49.98131 0.49341 31204 ft 461 kts 148°
2026-05-07 00:06 49.95453 0.52060 31504 ft 460 kts 147°
2026-05-07 00:06 49.92776 0.54780 31798 ft 460 kts 147°
2026-05-07 00:06 49.90099 0.57499 32121 ft 459 kts 147°
2026-05-07 00:06 49.87425 0.60216 32428 ft 459 kts 147°
2026-05-07 00:07 49.84877 0.63177 32735 ft 459 kts 139°
2026-05-07 00:07 49.82541 0.66562 33041 ft 459 kts 137°
2026-05-07 00:07 49.80226 0.69950 33355 ft 458 kts 137°
2026-05-07 00:07 49.77904 0.73329 33665 ft 458 kts 137°
2026-05-07 00:08 49.75576 0.76701 33986 ft 457 kts 137°
2026-05-07 00:08 49.73255 0.80053 34251 ft 457 kts 137°
2026-05-07 00:08 49.70932 0.83410 34466 ft 457 kts 137°
2026-05-07 00:08 49.68615 0.86764 34707 ft 457 kts 137°
2026-05-07 00:09 49.66296 0.90121 34953 ft 457 kts 137°
2026-05-07 00:09 49.63981 0.93466 35176 ft 456 kts 137°
2026-05-07 00:09 49.61662 0.96810 35395 ft 456 kts 137°
2026-05-07 00:09 49.59339 1.00154 35619 ft 456 kts 137°
2026-05-07 00:10 49.57017 1.03490 35827 ft 456 kts 137°
2026-05-07 00:10 49.54693 1.06821 36042 ft 456 kts 137°
2026-05-07 00:10 49.52370 1.10148 36246 ft 456 kts 138°
2026-05-07 00:10 49.50018 1.13512 36439 ft 456 kts 137°
2026-05-07 00:11 49.47690 1.16836 36632 ft 456 kts 138°
2026-05-07 00:11 49.45397 1.20108 36816 ft 456 kts 138°
2026-05-07 00:11 49.43042 1.23460 36992 ft 456 kts 138°
2026-05-07 00:11 49.40748 1.26723 37032 ft 455 kts 138°
2026-05-07 00:12 49.36106 1.33316 37030 ft 454 kts 138°
2026-05-07 00:12 49.31468 1.39883 37030 ft 454 kts 138°
2026-05-07 00:13 49.26819 1.46445 37028 ft 454 kts 138°
2026-05-07 00:13 49.22135 1.53042 37028 ft 455 kts 138°
2026-05-07 00:14 49.18260 1.58483 37028 ft 455 kts 138°
2026-05-07 00:14 49.12847 1.66077 37024 ft 455 kts 138°
2026-05-07 00:15 49.08182 1.72596 37026 ft 455 kts 138°
2026-05-07 00:15 49.04267 1.78046 37016 ft 455 kts 138°
2026-05-07 00:16 48.99592 1.84548 37017 ft 455 kts 138°
2026-05-07 00:16 48.94915 1.91043 37011 ft 455 kts 138°
2026-05-07 00:17 48.90240 1.97507 37032 ft 455 kts 138°
2026-05-07 00:17 48.85558 2.03972 37037 ft 455 kts 138°
2026-05-07 00:18 48.80863 2.10423 37038 ft 455 kts 138°
2026-05-07 00:18 48.76165 2.16868 37011 ft 455 kts 138°
2026-05-07 00:19 48.71470 2.23290 37016 ft 455 kts 139°
2026-05-07 00:19 48.66765 2.29700 37016 ft 455 kts 139°
2026-05-07 00:20 48.62094 2.36059 37009 ft 455 kts 139°
2026-05-07 00:20 48.57427 2.42402 37011 ft 455 kts 139°
2026-05-07 00:21 48.52716 2.48788 37010 ft 455 kts 139°
2026-05-07 00:21 48.48012 2.55153 37014 ft 455 kts 139°
2026-05-07 00:22 48.43293 2.61507 37011 ft 455 kts 139°
2026-05-07 00:22 48.38574 2.67845 37008 ft 455 kts 139°
2026-05-07 00:23 48.33852 2.74171 37008 ft 455 kts 139°
2026-05-07 00:23 48.29120 2.80488 37013 ft 455 kts 139°
2026-05-07 00:24 48.24298 2.86626 37012 ft 454 kts 142°
2026-05-07 00:24 48.19277 2.92372 37004 ft 454 kts 144°
2026-05-07 00:25 48.14212 2.98042 37004 ft 454 kts 144°
2026-05-07 00:25 48.09153 3.03708 37008 ft 454 kts 148°
2026-05-07 00:26 48.03520 3.07856 37006 ft 451 kts 158°
2026-05-07 00:26 47.97738 3.11503 37006 ft 452 kts 158°